Location: Young's Pond
(41.2695°N, 72.7766°W)
Time: 02:17:35
(UTC-04:00)

CZ-4B R/B - Visible Passes

Search period start: 24 July 2014 00:00
Search period end: 03 August 2014 00:00
Orbit: 429 x 555 km, 97.5° (Epoch: 23 July)

Date Brightness Start Highest point End Pass type
(mag) Time Alt. Az. Time Alt. Az. Time Alt. Az.
24 Jul 2.5 23:21:48 47° NNW 23:21:48 47° NNW 23:24:23 10° NNW visible
25 Jul 2.5 22:59:33 41° NNE 22:59:33 41° NNE 23:02:11 10° N visible
26 Jul 3.1 22:37:17 25° NE 22:37:17 25° NE 22:39:42 10° NNE visible
27 Jul 4.3 00:11:48 14° WNW 00:11:48 14° WNW 00:12:45 10° NW visible
27 Jul 3.7 22:15:01 14° ENE 22:15:01 14° ENE 22:16:43 10° NNE visible
27 Jul 3.7 23:49:32 23° NW 23:49:32 23° NW 23:51:16 10° NNW visible
28 Jul 3.1 23:27:15 35° NNW 23:27:15 35° NNW 23:29:22 10° NNW visible
29 Jul 2.8 23:04:59 36° NNE 23:04:59 36° NNE 23:07:11 10° N visible
30 Jul 3.2 22:42:41 25° NE 22:42:41 25° NE 22:44:44 10° N visible
31 Jul 4.6 00:17:12 11° WNW 00:17:12 11° WNW 00:17:25 10° WNW visible
31 Jul 3.7 22:20:24 15° NE 22:20:24 15° NE 22:21:51 10° NNE visible
31 Jul 4.1 23:54:55 18° NW 23:54:55 18° NW 23:56:05 10° NW visible
01 Aug 3.6 23:32:37 26° NNW 23:32:37 26° NNW 23:34:14 10° NNW visible
02 Aug 3.3 23:10:18 29° N 23:10:18 29° N 23:12:05 10° N visible
